Vertical_Velocity
0 0 -1 -2 -1 -0 1 0 -1 -2 -2 -3 -4 -6 -7 -4 -6 -6 -2 -2 -5 -6
2 0 -1 -2 -0 2 -1 1 1 -0 2 -1 -0 -2 -3 -4 -0 -0 -2 -4 -4 -3
1 0 0 -1 -1 0 -1 -0 -1 0 0 -0 -3 -6 -5 -2 -1 -1 -1 -2 -3 -3
1 1 -1 1 0 1 1 0 -0 -0 -2 -6 -6 -6 -4 -5 -4 -3 -4 -5 -6 -4
1 0 -0 -0 0 -1 1 -1 -2 -4 -5 -5 -5 -6 -7 -2 -3 -3 -3 -5 -7 -3
0 -1 -1 -1 -1 -0 1 -2 -4 -6 -6 -6 -6 -3 -2 -6 -7 -4 -2 -3 -4 -2
-2 -0 2 1 0 -0 -3 -3 -5 -6 -2 -4 -2 -8 -5 -7 -5 -0 -3 -5 -5 -1
-0 0 2 1 -0 -3 -4 -4 -4 -1 0 -3 -8 -7 -5 -6 -2 -2 2 1 1 2
4 1 -2 -3 -3 -2 -3 -1 -1 -4 -4 -1 -8 1 -1 -9 -5 -3 -7 -0 2 6
0 -3 -1 -2 -2 -0 -1 1 -1 -6 -7 -2 -8 -2 -3 -9 -7 -3 -3 -0 -3 5
-0 -0 -4 -1 -1 -1 -2 -1 -2 -5 -6 -1 -5 -7 -4 -6 -4 -2 -3 -0 -3 -5
1 -3 -1 -2 -2 -1 1 -6 -2 -6 -0 -4 -2 -7 -7 -8 -2 2 -0 2 -2 -1
0 -0 -3 -2 -3 -3 -2 -4 0 1 -5 -10 -3 -6 -1 -3 -11 -3 -1 7 4 2
1 -1 -2 -3 -1 1 1 -3 -5 -1 -6 -10 -10 -6 -5 -1 -5 -6 0 1 3 2
Height
5682 5679 5676 5673 5670 5666 5661 5656 5651 5646 5640 5634 5629 5623 5618 5612 5605 5598 5588 5578 5567 5557
5667 5664 5661 5657 5653 5649 5644 5639 5634 5628 5622 5616 5610 5605 5599 5593 5584 5575 5564 5554 5542 5530
5652 5649 5645 5641 5637 5633 5627 5622 5616 5610 5604 5598 5592 5586 5580 5572 5563 5553 5541 5529 5518 5506
5637 5633 5629 5625 5620 5615 5609 5604 5598 5593 5587 5581 5574 5567 5560 5551 5541 5530 5517 5504 5494 5482
5620 5616 5612 5607 5602 5597 5592 5587 5582 5576 5569 5562 5556 5547 5539 5529 5517 5507 5495 5482 5470 5458
5604 5599 5595 5591 5586 5582 5577 5571 5565 5559 5552 5544 5535 5525 5516 5507 5497 5486 5473 5461 5450 5438
5588 5584 5580 5576 5572 5566 5561 5555 5549 5540 5532 5523 5514 5505 5496 5486 5477 5465 5451 5440 5428 5418
5573 5570 5565 5561 5557 5551 5545 5538 5530 5522 5512 5503 5494 5486 5475 5465 5456 5445 5434 5421 5410 5404
5557 5554 5550 5546 5541 5534 5527 5519 5511 5502 5494 5484 5473 5466 5455 5445 5437 5426 5414 5404 5397 5392
5542 5539 5535 5529 5523 5517 5509 5501 5492 5483 5474 5465 5454 5448 5437 5427 5417 5407 5396 5388 5385 5381
5527 5523 5518 5513 5507 5500 5492 5483 5475 5465 5456 5448 5436 5431 5420 5408 5399 5390 5382 5377 5372 5369
5511 5506 5502 5496 5490 5483 5475 5467 5459 5448 5440 5433 5424 5414 5403 5392 5384 5377 5372 5368 5362 5357
5496 5491 5486 5480 5474 5467 5460 5452 5444 5433 5425 5417 5409 5396 5387 5377 5370 5366 5362 5358 5352 5346
5480 5475 5470 5464 5460 5454 5444 5437 5430 5422 5411 5402 5391 5384 5375 5366 5361 5356 5352 5347 5341 5335